SAS9987 ESGJ-ESGG

Flight info

Callsign SAS9987
Flight time 0h 43m
Altitude 24000
Route BENGI DCT ARQUS
Aircraft A320/M-SDE3FGHIRWY/LB1

Departure

Time 2026-05-07 15:20
Airport Jönköping Airport (ESGJ)

Arrival

Time 2026-05-07 16:03
Airport Göteborg Landvetter Airport (ESGG)
Time Latitude Longitude Altitude Speed Heading
2026-05-07 15:19 57.77659 14.06571 2350 ft 152 kts 315°
2026-05-07 15:20 57.78054 14.04716 3097 ft 169 kts 273°
2026-05-07 15:20 57.77612 14.02506 3600 ft 201 kts 230°
2026-05-07 15:20 57.76364 14.01010 4226 ft 230 kts 197°
2026-05-07 15:20 57.74695 14.00457 4949 ft 257 kts 187°
2026-05-07 15:21 57.72862 14.00090 5925 ft 270 kts 186°
2026-05-07 15:21 57.71000 13.99758 7113 ft 274 kts 186°
2026-05-07 15:21 57.69089 13.99443 8252 ft 278 kts 186°
2026-05-07 15:21 57.67172 13.98844 9397 ft 280 kts 203°
2026-05-07 15:22 57.65543 13.96875 10379 ft 287 kts 227°
2026-05-07 15:22 57.64469 13.93652 11029 ft 300 kts 253°
2026-05-07 15:22 57.64237 13.89763 11946 ft 306 kts 273°
2026-05-07 15:22 57.64419 13.85794 12987 ft 309 kts 276°
2026-05-07 15:23 57.64640 13.81736 13390 ft 314 kts 276°
2026-05-07 15:23 57.64864 13.77689 13510 ft 316 kts 276°
2026-05-07 15:23 57.65090 13.73618 14499 ft 316 kts 276°
2026-05-07 15:23 57.65319 13.69520 15433 ft 319 kts 276°
2026-05-07 15:24 57.65551 13.65428 15880 ft 322 kts 276°
2026-05-07 15:24 57.65786 13.61269 16045 ft 322 kts 276°
2026-05-07 15:24 57.66018 13.57186 16078 ft 312 kts 276°
2026-05-07 15:24 57.66246 13.53168 16081 ft 310 kts 276°
2026-05-07 15:25 57.66473 13.49167 16084 ft 310 kts 276°
2026-05-07 15:25 57.66698 13.45174 15949 ft 307 kts 276°
2026-05-07 15:25 57.66919 13.41222 15513 ft 304 kts 276°
2026-05-07 15:25 57.67138 13.37300 15054 ft 303 kts 276°
2026-05-07 15:26 57.67353 13.33396 14614 ft 301 kts 276°
2026-05-07 15:26 57.67565 13.29517 14188 ft 299 kts 276°
2026-05-07 15:26 57.67774 13.25660 13747 ft 298 kts 276°
2026-05-07 15:26 57.67982 13.21820 13285 ft 296 kts 276°
2026-05-07 15:27 57.68188 13.17992 12830 ft 295 kts 276°
2026-05-07 15:27 57.68392 13.14190 12376 ft 294 kts 276°
2026-05-07 15:27 57.68593 13.10402 11927 ft 293 kts 276°
2026-05-07 15:27 57.68793 13.06668 11500 ft 291 kts 276°
2026-05-07 15:28 57.68994 13.02909 11074 ft 290 kts 276°
2026-05-07 15:28 57.69192 12.99169 10664 ft 289 kts 276°
2026-05-07 15:28 57.69389 12.95449 10333 ft 284 kts 276°
2026-05-07 15:28 57.69581 12.91833 10097 ft 277 kts 276°
2026-05-07 15:29 57.69770 12.88261 9752 ft 274 kts 276°
2026-05-07 15:29 57.69955 12.84711 9353 ft 273 kts 276°
2026-05-07 15:29 57.70136 12.81179 8959 ft 273 kts 276°
2026-05-07 15:29 57.70317 12.77657 8549 ft 272 kts 275°
2026-05-07 15:30 57.70542 12.74197 8208 ft 269 kts 282°
2026-05-07 15:30 57.71370 12.71103 7871 ft 269 kts 310°
2026-05-07 15:30 57.72816 12.68887 7488 ft 270 kts 324°
2026-05-07 15:30 57.74380 12.66925 7079 ft 271 kts 326°
2026-05-07 15:31 57.75951 12.64967 6708 ft 271 kts 325°
2026-05-07 15:31 57.77518 12.63018 6332 ft 270 kts 326°
2026-05-07 15:31 57.79080 12.61072 5956 ft 269 kts 326°
2026-05-07 15:31 57.80628 12.59126 5588 ft 267 kts 326°
2026-05-07 15:32 57.82164 12.57187 5240 ft 265 kts 326°
2026-05-07 15:32 57.83691 12.55245 4892 ft 264 kts 326°
2026-05-07 15:32 57.85188 12.53284 4538 ft 262 kts 321°
2026-05-07 15:32 57.86270 12.50601 4243 ft 258 kts 291°
2026-05-07 15:33 57.86391 12.47326 3949 ft 255 kts 255°
2026-05-07 15:33 57.85439 12.44658 3818 ft 244 kts 217°
2026-05-07 15:33 57.83925 12.43637 3670 ft 224 kts 189°
2026-05-07 15:33 57.82491 12.42918 3534 ft 206 kts 208°
2026-05-07 15:34 57.81256 12.41733 3446 ft 199 kts 207°
2026-05-07 15:34 57.80032 12.40573 3254 ft 196 kts 208°
2026-05-07 15:34 57.78821 12.39451 2997 ft 193 kts 208°
2026-05-07 15:34 57.77601 12.38329 2738 ft 197 kts 208°
2026-05-07 15:35 57.76377 12.37206 2498 ft 192 kts 208°
2026-05-07 15:35 57.75218 12.36146 2222 ft 179 kts 208°
2026-05-07 15:35 57.74171 12.35192 1999 ft 154 kts 211°
2026-05-07 15:35 57.73265 12.34362 1774 ft 138 kts 209°
2026-05-07 15:36 57.72411 12.33578 1595 ft 135 kts 213°
2026-05-07 15:36 57.71581 12.32819 1416 ft 130 kts 210°
2026-05-07 15:36 57.70770 12.32076 1243 ft 128 kts 212°
2026-05-07 15:36 57.69977 12.31351 1072 ft 126 kts 212°
2026-05-07 15:37 57.69202 12.30643 895 ft 125 kts 211°
2026-05-07 15:37 57.68439 12.29945 742 ft 121 kts 211°
2026-05-07 15:37 57.67688 12.29260 571 ft 119 kts 211°
2026-05-07 15:37 57.66986 12.28617 515 ft 98 kts 205°
2026-05-07 15:38 57.66259 12.27961 562 ft 152 kts 207°
2026-05-07 15:38 57.65202 12.26989 1396 ft 185 kts 211°
2026-05-07 15:38 57.64023 12.25925 2399 ft 190 kts 208°
2026-05-07 15:38 57.62756 12.24852 2890 ft 218 kts 207°
2026-05-07 15:39 57.61309 12.23501 3013 ft 239 kts 216°
2026-05-07 15:39 57.60248 12.21180 3039 ft 236 kts 248°
2026-05-07 15:39 57.60012 12.18271 3040 ft 232 kts 280°
2026-05-07 15:39 57.60505 12.15422 3044 ft 232 kts 294°
2026-05-07 15:40 57.61149 12.12673 3048 ft 231 kts 295°
2026-05-07 15:40 57.61828 12.09917 3046 ft 236 kts 295°
2026-05-07 15:40 57.62570 12.07174 3041 ft 237 kts 303°
2026-05-07 15:40 57.63784 12.05219 3035 ft 233 kts 336°
2026-05-07 15:41 57.65376 12.04792 3043 ft 235 kts
2026-05-07 15:41 57.66927 12.05799 3038 ft 238 kts 23°
2026-05-07 15:41 57.68412 12.07152 3038 ft 237 kts 26°
2026-05-07 15:41 57.69891 12.08538 3034 ft 238 kts 25°
2026-05-07 15:42 57.71373 12.09936 3038 ft 238 kts 25°
2026-05-07 15:42 57.72852 12.11344 3033 ft 238 kts 26°
2026-05-07 15:42 57.74309 12.12726 3042 ft 238 kts 26°
2026-05-07 15:42 57.75785 12.14116 3029 ft 237 kts 26°
2026-05-07 15:43 57.77262 12.15519 3043 ft 238 kts 25°
2026-05-07 15:43 57.78739 12.16934 3041 ft 238 kts 25°
2026-05-07 15:43 57.80215 12.18339 3033 ft 238 kts 26°
2026-05-07 15:43 57.81678 12.19806 3009 ft 239 kts 33°
2026-05-07 15:44 57.82745 12.22171 3027 ft 241 kts 63°
2026-05-07 15:44 57.83190 12.24083 3016 ft 241 kts 64°
2026-05-07 15:44 57.83835 12.26973 3007 ft 240 kts 64°
2026-05-07 15:44 57.84470 12.29864 3017 ft 240 kts 65°
2026-05-07 15:45 57.84797 12.32924 3017 ft 243 kts 93°
2026-05-07 15:45 57.84315 12.35971 3016 ft 245 kts 113°
2026-05-07 15:45 57.83508 12.38766 3015 ft 244 kts 129°
2026-05-07 15:45 57.82179 12.40542 3005 ft 229 kts 162°
2026-05-07 15:46 57.79374 12.39963 2998 ft 192 kts 207°
2026-05-07 15:46 57.78195 12.38877 2845 ft 188 kts 207°
2026-05-07 15:46 57.77020 12.37795 2614 ft 188 kts 208°
2026-05-07 15:47 57.75878 12.36749 2377 ft 177 kts 210°
2026-05-07 15:47 57.74800 12.35763 2118 ft 166 kts 211°
2026-05-07 15:47 57.73841 12.34889 1907 ft 144 kts 212°
2026-05-07 15:47 57.72979 12.34100 1718 ft 135 kts 211°
2026-05-07 15:48 57.72150 12.33341 1540 ft 133 kts 211°
2026-05-07 15:48 57.71333 12.32593 1360 ft 129 kts 211°
2026-05-07 15:48 57.70531 12.31859 1178 ft 126 kts 208°
2026-05-07 15:48 57.69748 12.31132 1037 ft 126 kts 212°
2026-05-07 15:49 57.68970 12.30427 864 ft 122 kts 213°
2026-05-07 15:49 57.68219 12.29746 696 ft 118 kts 211°
2026-05-07 15:49 57.67487 12.29077 531 ft 116 kts 210°
2026-05-07 15:49 57.66836 12.28485 516 ft 106 kts 206°
2026-05-07 15:50 57.66037 12.27724 782 ft 148 kts 213°
2026-05-07 15:50 57.64974 12.26765 1301 ft 192 kts 208°
2026-05-07 15:50 57.63725 12.25685 2151 ft 198 kts 207°
2026-05-07 15:50 57.62486 12.24685 2630 ft 196 kts 207°
2026-05-07 15:51 57.61123 12.23549 2993 ft 234 kts 207°
2026-05-07 15:51 57.59626 12.22211 3039 ft 241 kts 208°
2026-05-07 15:51 57.58120 12.20849 3042 ft 241 kts 207°
2026-05-07 15:51 57.56817 12.19011 3033 ft 238 kts 234°
2026-05-07 15:52 57.56211 12.16206 3043 ft 235 kts 267°
2026-05-07 15:52 57.56502 12.13283 3042 ft 232 kts 299°
2026-05-07 15:52 57.57591 12.11128 3039 ft 231 kts 328°
2026-05-07 15:52 57.59029 12.09729 3045 ft 236 kts 335°
2026-05-07 15:53 57.60527 12.08435 3042 ft 238 kts 335°
2026-05-07 15:53 57.62014 12.07173 3048 ft 238 kts 335°
2026-05-07 15:53 57.63546 12.05912 3042 ft 238 kts 339°
2026-05-07 15:53 57.65153 12.05603 3045 ft 237 kts
2026-05-07 15:54 57.66700 12.06665 3038 ft 237 kts 23°
2026-05-07 15:54 57.68187 12.08018 3038 ft 238 kts 25°
2026-05-07 15:54 57.69667 12.09405 3044 ft 239 kts 25°
2026-05-07 15:54 57.71145 12.10811 3033 ft 239 kts 26°
2026-05-07 15:55 57.72623 12.12214 3037 ft 238 kts 25°
2026-05-07 15:55 57.74101 12.13606 3033 ft 238 kts 25°
2026-05-07 15:55 57.75577 12.15006 3040 ft 238 kts 25°
2026-05-07 15:55 57.77050 12.16415 3037 ft 238 kts 25°
2026-05-07 15:56 57.78503 12.17795 3040 ft 229 kts 25°
2026-05-07 15:56 57.79919 12.19136 3013 ft 227 kts 26°
2026-05-07 15:56 57.81321 12.20505 3034 ft 227 kts 30°
2026-05-07 15:56 57.82450 12.22557 3044 ft 226 kts 52°
2026-05-07 15:57 57.83320 12.24951 3029 ft 219 kts 54°
2026-05-07 15:57 57.84132 12.27355 3032 ft 218 kts 54°
2026-05-07 15:57 57.84923 12.29747 3028 ft 212 kts 57°
2026-05-07 15:57 57.85639 12.32102 3024 ft 212 kts 68°
2026-05-07 15:58 57.85709 12.34841 3044 ft 216 kts 105°
2026-05-07 15:58 57.85150 12.37451 3040 ft 217 kts 114°
2026-05-07 15:58 57.84415 12.39851 3019 ft 207 kts 133°
2026-05-07 15:58 57.83263 12.41327 3036 ft 200 kts 160°
2026-05-07 15:59 57.81918 12.41756 3045 ft 196 kts 185°
2026-05-07 15:59 57.80624 12.41107 3039 ft 191 kts 208°
2026-05-07 15:59 57.79424 12.40003 3029 ft 193 kts 210°
2026-05-07 15:59 57.78232 12.38907 2906 ft 188 kts 209°
2026-05-07 16:00 57.77062 12.37833 2649 ft 185 kts 208°
2026-05-07 16:00 57.75916 12.36781 2391 ft 182 kts 208°
2026-05-07 16:00 57.74801 12.35762 2141 ft 174 kts 209°
2026-05-07 16:00 57.73743 12.34795 1909 ft 165 kts 211°
2026-05-07 16:01 57.72742 12.33880 1691 ft 156 kts 210°
2026-05-07 16:01 57.71807 12.33025 1488 ft 147 kts 209°
2026-05-07 16:01 57.70931 12.32226 1310 ft 135 kts 211°
2026-05-07 16:01 57.70110 12.31476 1111 ft 129 kts 212°
2026-05-07 16:02 57.69317 12.30752 936 ft 126 kts 212°
2026-05-07 16:02 57.68536 12.30031 774 ft 124 kts 214°
2026-05-07 16:02 57.67766 12.29326 590 ft 122 kts 213°
2026-05-07 16:02 57.67036 12.28660 514 ft 100 kts 206°
2026-05-07 16:03 57.66532 12.28206 512 ft 64 kts 206°
2026-05-07 16:03 57.66235 12.27942 510 ft 25 kts 204°
2026-05-07 16:03 57.66134 12.27990 508 ft 17 kts 125°
2026-05-07 16:03 57.66104 12.28145 509 ft 8 kts 63°
2026-05-07 16:04 57.66216 12.28266 510 ft 27 kts 25°
2026-05-07 16:04 57.66395 12.28427 511 ft 30 kts 26°
2026-05-07 16:04 57.66582 12.28599 512 ft 30 kts 26°
2026-05-07 16:04 57.66764 12.28762 513 ft 21 kts 24°
2026-05-07 16:05 57.66819 12.28935 516 ft 17 kts 105°
2026-05-07 16:05 57.66770 12.29134 516 ft 10 kts 95°
2026-05-07 16:05 57.66813 12.29167 516 ft 4 kts 13°
2026-05-07 16:05 57.66800 12.29229 516 ft 9 kts 119°
2026-05-07 16:06 57.66779 12.29308 516 ft 3 kts 116°
2026-05-07 16:06 57.66778 12.29312 516 ft 0 kts 116°